Regional Weather Roundup
Issued by NWS

Home | Current Version | Previous Version | Graphics & Text | Print | Product List | Glossary On
Versions: 1 2 3 4 5 6 7 8 9 10 11 12 13 14 15 16 17 18 19 20 21 22 23 24 25 26 27 28 29 30 31 32 33 34 35 36 37 38 39 40 41 42 43 44 45 46 47 48 49 50
000
ASUS43 KFSD 210410
RWRSD

WEATHER ROUNDUP FOR SOUTH DAKOTA
NATIONAL WEATHER SERVICE SIOUX FALLS SD
1000 PM CST MON NOV 20 2017

NOTE: "FAIR" INDICATES FEW OR NO CLOUDS BELOW 12,000 FEET WITH NO
SIGNIFICANT WEATHER AND/OR OBSTRUCTIONS TO VISIBILITY.


SDZ001>005-009-010-012>017-210500-
NORTHWEST AND NORTH CENTRAL SOUTH DAKOTA

CITY           SKY/WX    TMP DP  RH WIND       PRES   REMARKS
BUFFALO          N/A     32  25  75 N23       29.76R WCI  19
FAITH            N/A     37  21  52 N16G28    29.80R
MOBRIDGE       CLOUDY    40  21  46 NW16      29.71R
$$

SDZ012>016-024>037-041>051-057-063-072>074-210500-
SOUTHWEST AND SOUTH CENTRAL SOUTH DAKOTA

CITY           SKY/WX    TMP DP  RH WIND       PRES   REMARKS
RAPID CTY ARPT CLOUDY    43  26  51 N16       29.78R
PIERRE         CLOUDY    41  28  60 N17       29.73R
CUSTER         CLOUDY    40  21  46 W5        29.76S
ELLSWORTH AFB  CLOUDY    43  26  52 N17       29.78R
PHILIP         CLOUDY    40  27  59 NW8       29.77R
PINE RIDGE     CLEAR     36  23  59 SW7       29.76R
SPEARFISH      CLOUDY    39  27  60 N7G14     29.81R
WINNER         FAIR      44  23  43 W3        29.73R
$$

SDZ004>011-016>023-039-040-210500-
NORTHEAST SOUTH DAKOTA

CITY           SKY/WX    TMP DP  RH WIND       PRES   REMARKS
ABERDEEN       CLOUDY    34  20  56 N10       29.71R WCI  26
WATERTOWN      CLEAR     34  25  69 NW15G24   29.64R WCI  24
BROOKINGS      PTCLDY    36  25  64 NW10      29.66R
SISSETON         N/A     35  20  54 NW17      29.63R WCI  25
$$

SDZ017-020-022-023-036>040-048>070-210500-
SOUTHEAST SOUTH DAKOTA

CITY           SKY/WX    TMP DP  RH WIND       PRES   REMARKS
SIOUX FALLS    CLOUDY    40  24  53 NW10      29.65R
HURON          MOCLDY    40  26  57 N14       29.71R
CHAMBERLAIN    PTCLDY    46  26  45 N7        29.71R
MITCHELL       CLOUDY    47  24  40 NW14      29.70R
YANKTON        PTCLDY    44  25  47 W8        29.68R
$$

ABBREVIATIONS USED IN REMARKS
   TC - TEMPERATURE IN CELSIUS
  WCI - WIND CHILL INDEX
   HX - HEAT INDEX
  VSB - VISIBILITY





USA.gov is the U.S. government's official web portal to all federal, state and local government web resources and services.